Location: DaVinci Observatory
(43.1080°N, 78.6453°W)
Time: 20:09:07
(UTC-04:00)

Envisat - Pass Details

Date: 13 October 2017
Orbit: 764 x 766 km, 98.2° (Epoch: 16 October)

Event Time Altitude Azimuth Distance (km) Brightness Sun altitude
Exits shadow 19:16:46 10° 76° (ENE) 2,312 4.8 -8.5°
Reaches altitude 10° 19:16:49 10° 75° (ENE) 2,305 4.8 -8.5°
Maximum altitude 19:18:23 11° 57° (ENE) 2,210 4.9 -8.8°
Drops below altitude 10° 19:19:57 10° 39° (NE) 2,309 5.1 -9.1°
Sets 19:23:58 0° 7° (N) 3,241 6.1 -9.8°
